GW3329 Weather Reports


time (UTC)temp
C
wind
direction
speed
KPH
gust
KPH
rain 1hr
cm
rain 24hr
cm
rain mn
cm
humidity
%
barometer
mb
20260509041009 14 172 0.0 0.0 0.00 0.00 0.00 91 1017.7
20260509040507 14 171 0.0 0.0 0.00 0.00 0.00 91 1017.5
20260509040004 13 170 0.0 0.0 0.00 0.00 0.00 90 1017.5
20260509035501 14 170 0.0 0.0 0.00 0.00 0.00 91 1017.5
20260509034957 14 163 0.0 0.0 0.00 0.00 0.00 90 1017.5
20260509034455 14 163 0.0 0.0 0.00 0.00 0.00 90 1017.7
20260509033952 14 163 0.0 0.0 0.00 0.00 0.00 90 1017.6
20260509033449 14 166 0.0 0.0 0.00 0.00 0.00 89 1017.6
20260509032945 15 169 0.0 0.0 0.00 0.00 0.00 89 1017.6
20260509032443 15 157 0.0 0.0 0.00 0.00 0.00 88 1017.5
20260509031940 15 128 0.0 0.0 0.00 0.00 0.00 87 1017.4
20260509031438 15 31 0.0 1.6 0.00 0.00 0.00 87 1017.6
20260509030935 15 26 0.0 1.6 0.00 0.00 0.00 87 1017.4
20260509030433 15 41 0.0 3.2 0.00 0.00 0.00 86 1017.5
20260509025930 15 49 0.0 3.2 0.00 0.00 0.00 86 1017.5
20260509025425 15 344 1.6 1.6 0.00 0.00 0.00 86 1017.4
20260509024921 15 32 3.2 4.8 0.00 0.00 0.00 85 1017.4
20260509024417 16 163 0.0 0.0 0.00 0.00 0.00 85 1017.2
20260509023914 16 167 0.0 0.0 0.00 0.00 0.00 85 1017.1
20260509023411 16 176 0.0 1.6 0.00 0.00 0.00 85 1016.9
20260509022908 16 180 0.0 0.0 0.00 0.00 0.00 84 1017.1
20260509022405 16 184 0.0 0.0 0.00 0.00 0.00 84 1017.0
20260509021902 16 210 0.0 1.6 0.00 0.00 0.00 84 1016.7
20260509021359 16 178 0.0 3.2 0.00 0.00 0.00 84 1017.1
20260509020857 16 184 1.6 1.6 0.00 0.00 0.00 83 1017.3
20260509020355 16 133 0.0 0.0 0.00 0.00 0.00 83 1017.2
20260509015852 16 123 0.0 3.2 0.00 0.00 0.00 83 1017.2
20260509015350 16 191 0.0 1.6 0.00 0.00 0.00 82 1017.1
20260509014846 17 215 3.2 3.2 0.00 0.00 0.00 81 1017.1
20260509014343 17 59 1.6 3.2 0.00 0.00 0.00 80 1016.9
20260509013839 17 136 0.0 4.8 0.00 0.00 0.00 79 1017.2
20260509013336 17 180 0.0 0.0 0.00 0.00 0.00 78 1017.1
20260509012832 17 276 4.8 9.7 0.00 0.00 0.00 78 1017.2
20260509012329 18 229 4.8 6.4 0.00 0.00 0.00 77 1017.3
20260509011827 18 203 1.6 4.8 0.00 0.00 0.00 77 1017.0
20260509011324 18 355 1.6 4.8 0.00 0.00 0.00 77 1017.2
20260509010821 18 169 3.2 9.7 0.00 0.00 0.00 77 1017.1
20260509010319 18 278 3.2 4.8 0.00 0.00 0.00 76 1017.0
20260509005815 18 207 1.6 3.2 0.00 0.00 0.00 76 1017.1
20260509005313 18 256 6.4 9.7 0.00 0.00 0.00 76 1016.9
20260509004808 18 27 1.6 4.8 0.00 0.00 0.00 76 1017.0
20260509004304 18 305 1.6 11.3 0.00 0.00 0.00 76 1017.0
20260509003803 18 265 1.6 9.7 0.00 0.00 0.00 76 1017.0
20260509003300 18 277 3.2 9.7 0.00 0.00 0.00 75 1017.2
20260509002757 19 182 0.0 4.8 0.00 0.00 0.00 74 1017.1
20260509002255 19 297 3.2 4.8 0.00 0.00 0.00 74 1017.0
20260509001752 19 267 8.0 11.3 0.00 0.00 0.00 74 1017.1
20260509001248 20 159 0.0 6.4 0.00 0.00 0.00 72 1017.1
20260509000746 20 149 0.0 6.4 0.00 0.00 0.00 72 1017.2
20260509000242 20 224 1.6 4.8 0.00 0.00 0.00 72 1017.2
20260508235739 20 211 3.2 6.4 0.00 0.00 0.00 72 1017.3
20260508235230 20 60 1.6 11.3 0.00 0.00 0.00 72 1017.2
20260508234727 20 55 1.6 3.2 0.00 0.00 0.00 71 1017.1
20260508234223 20 168 3.2 12.9 0.00 0.00 0.00 71 1017.2
20260508233718 21 219 3.2 4.8 0.00 0.00 0.00 70 1017.3
20260508233215 20 59 3.2 6.4 0.00 0.00 0.00 71 1017.5
20260508232713 21 167 1.6 11.3 0.00 0.00 0.00 70 1017.2
20260508232209 21 300 3.2 6.4 0.00 0.00 0.00 71 1017.3
20260508231707 21 273 3.2 4.8 0.00 0.00 0.00 69 1017.6
20260508231204 21 248 8.0 14.5 0.00 0.00 0.00 71 1017.5
20260508230701 21 279 6.4 11.3 0.00 0.00 0.00 69 1017.7
20260508230156 21 166 3.2 9.7 0.00 0.00 0.00 68 1017.6
20260508225655 21 264 6.4 6.4 0.00 0.00 0.00 69 1017.5
20260508225150 21 257 1.6 4.8 0.00 0.00 0.00 68 1017.8
20260508224649 21 62 1.6 9.7 0.00 0.00 0.00 68 1017.7
20260508224146 22 243 0.0 6.4 0.00 0.00 0.00 68 1017.8
20260508223643 22 293 3.2 6.4 0.00 0.00 0.00 67 1017.8
20260508223141 22 188 9.7 12.9 0.00 0.00 0.00 67 1018.0
20260508222638 22 12 1.6 6.4 0.00 0.00 0.00 66 1018.0
20260508222135 22 114 1.6 6.4 0.00 0.00 0.00 67 1017.9
20260508221631 21 149 3.2 11.3 0.00 0.00 0.00 69 1018.1
20260508221127 22 340 3.2 6.4 0.00 0.00 0.00 67 1018.0
20260508220624 22 4 4.8 4.8 0.00 0.00 0.00 68 1018.2
20260508220120 22 140 3.2 4.8 0.00 0.00 0.00 68 1018.1
20260508215617 22 167 0.0 6.4 0.00 0.00 0.00 67 1018.2
20260508215114 22 236 6.4 9.7 0.00 0.00 0.00 67 1018.3
20260508214611 22 79 1.6 9.7 0.00 0.00 0.00 68 1018.5
20260508214108 21 283 6.4 9.7 0.00 0.00 0.00 67 1018.3
20260508213604 22 59 3.2 3.2 0.00 0.00 0.00 68 1018.4
20260508213101 21 316 1.6 6.4 0.00 0.00 0.00 70 1018.4
20260508212557 22 84 1.6 9.7 0.00 0.00 0.00 68 1018.5
20260508212054 21 190 3.2 9.7 0.00 0.00 0.00 69 1018.7
20260508211549 22 291 4.8 9.7 0.00 0.00 0.00 68 1018.6
20260508211045 21 199 6.4 6.4 0.00 0.00 0.00 67 1018.5
20260508210542 22 251 6.4 11.3 0.00 0.00 0.00 68 1018.8
20260508210040 21 201 3.2 9.7 0.00 0.00 0.00 68 1018.9
20260508205537 22 259 9.7 12.9 0.00 0.00 0.00 67 1018.9
20260508205033 21 225 3.2 14.5 0.00 0.00 0.00 70 1019.0
20260508204530 22 184 3.2 11.3 0.00 0.00 0.00 68 1019.0
20260508204025 22 265 3.2 6.4 0.00 0.00 0.00 67 1018.9
20260508203522 21 31 1.6 9.7 0.00 0.00 0.00 69 1019.0
20260508203018 21 28 3.2 6.4 0.00 0.00 0.00 68 1019.0
20260508202515 22 134 0.0 9.7 0.00 0.00 0.00 69 1019.0
20260508202012 22 134 1.6 4.8 0.00 0.00 0.00 68 1019.0
20260508201509 21 202 8.0 9.7 0.00 0.00 0.00 68 1019.0
20260508201005 22 170 0.0 4.8 0.00 0.00 0.00 67 1019.2
20260508200502 22 138 0.0 4.8 0.00 0.00 0.00 66 1019.6
20260508195956 22 215 1.6 6.4 0.00 0.00 0.00 68 1019.4
20260508195455 21 223 6.4 9.7 0.00 0.00 0.00 67 1019.4
20260508194950 22 197 3.2 4.8 0.00 0.00 0.00 66 1019.6
20260508194448 22 171 1.6 9.7 0.00 0.00 0.00 67 1019.6
20260508193945 21 52 1.6 4.8 0.00 0.00 0.00 69 1019.6
20260508193441 21 99 1.6 12.9 0.00 0.00 0.00 69 1019.6
20260508192938 21 267 4.8 11.3 0.00 0.00 0.00 68 1019.2
20260508192435 21 203 4.8 6.4 0.00 0.00 0.00 68 1019.4
20260508191932 21 125 1.6 3.2 0.00 0.00 0.00 69 1019.6
20260508191429 21 259 6.4 9.7 0.00 0.00 0.00 68 1019.8
20260508190925 20 183 4.8 9.7 0.00 0.00 0.00 71 1019.4
20260508190423 20 182 1.6 3.2 0.00 0.00 0.00 70 1019.6
20260508185919 20 210 1.6 3.2 0.00 0.00 0.00 70 1019.6
20260508185417 21 145 1.6 3.2 0.00 0.00 0.00 69 1019.3
20260508184914 20 31 6.4 9.7 0.00 0.00 0.00 71 1020.1
20260508184411 20 210 4.8 9.7 0.00 0.00 0.00 73 1020.0
20260508183908 20 269 4.8 6.4 0.00 0.00 0.00 71 1020.0
20260508183404 20 39 0.0 3.2 0.00 0.00 0.00 72 1019.9
20260508182859 20 147 1.6 3.2 0.00 0.00 0.00 72 1019.8
20260508182357 20 96 0.0 4.8 0.00 0.00 0.00 72 1020.0
20260508181852 20 283 4.8 11.3 0.00 0.00 0.00 73 1020.0
20260508181349 20 212 0.0 1.6 0.00 0.00 0.00 72 1020.2
20260508180846 19 229 1.6 4.8 0.00 0.00 0.00 74 1020.2
20260508180343 18 155 0.0 3.2 0.00 0.00 0.00 76 1020.5
20260508175839 18 269 4.8 9.7 0.00 0.00 0.00 75 1020.4
20260508175336 18 232 4.8 6.4 0.00 0.00 0.00 75 1020.4
20260508174834 18 59 0.0 1.6 0.00 0.00 0.00 76 1020.3
20260508174331 18 61 0.0 6.4 0.00 0.00 0.00 77 1020.4
20260508173827 18 209 1.6 3.2 0.00 0.00 0.00 78 1020.3
20260508173325 17 119 0.0 3.2 0.00 0.00 0.00 80 1020.5
20260508172820 16 297 1.6 3.2 0.00 0.00 0.00 82 1020.3
20260508172318 17 212 1.6 6.4 0.00 0.00 0.00 82 1020.4
20260508171814 17 191 3.2 4.8 0.00 0.00 0.00 82 1020.3
20260508171310 16 326 1.6 3.2 0.00 0.00 0.00 83 1020.4
20260508170807 16 22 0.0 4.8 0.00 0.00 0.00 84 1020.3
20260508170306 16 214 1.6 4.8 0.00 0.00 0.00 84 1020.5
20260508165802 16 142 0.0 1.6 0.00 0.00 0.00 86 1020.3
20260508165259 16 258 3.2 6.4 0.00 0.00 0.00 85 1020.4
20260508164755 16 145 1.6 1.6 0.00 0.00 0.00 85 1020.5
20260508164252 15 144 0.0 0.0 0.00 0.00 0.00 87 1020.1
20260508163750 15 202 1.6 4.8 0.00 0.00 0.00 87 1020.4
20260508163247 15 139 0.0 4.8 0.00 0.00 0.00 88 1020.2
20260508162743 15 179 3.2 3.2 0.00 0.00 0.00 87 1020.6
20260508162240 15 96 0.0 1.6 0.00 0.00 0.00 88 1020.3
20260508161737 15 153 0.0 1.6 0.00 0.00 0.00 88 1020.3
20260508161234 15 100 1.6 3.2 0.00 0.00 0.00 90 1020.2
20260508160732 15 90 0.0 1.6 0.00 0.00 0.00 89 1020.1
20260508160230 15 101 1.6 3.2 0.00 0.00 0.00 89 1020.2
20260508155726 15 164 0.0 1.6 0.00 0.00 0.00 89 1020.1
20260508155223 15 151 0.0 0.0 0.00 0.00 0.00 90 1020.4
20260508154720 15 100 0.0 1.6 0.00 0.00 0.00 90 1020.3
20260508154217 14 145 1.6 3.2 0.00 0.00 0.00 91 1020.3
20260508153714 14 159 0.0 0.0 0.00 0.00 0.00 92 1020.3
20260508153211 14 134 3.2 3.2 0.00 0.00 0.00 91 1020.5
20260508152708 13 80 0.0 3.2 0.00 0.00 0.00 92 1020.5
20260508152203 14 116 0.0 1.6 0.00 0.00 0.00 92 1020.6
20260508151700 13 132 1.6 3.2 0.00 0.00 0.00 92 1020.4
20260508151157 13 74 0.0 0.0 0.00 0.00 0.00 93 1020.4
20260508150654 13 134 0.0 0.0 0.00 0.00 0.00 93 1020.8
20260508150150 13 157 0.0 0.0 0.00 0.00 0.00 94 1020.5
20260508145646 13 107 1.6 1.6 0.00 0.00 0.00 94 1020.8
20260508145142 13 95 0.0 0.0 0.00 0.00 0.00 94 1020.4
20260508144640 13 140 0.0 3.2 0.00 0.00 0.00 95 1020.6
20260508144138 13 127 0.0 0.0 0.00 0.00 0.00 95 1020.6
20260508143635 13 146 0.0 3.2 0.00 0.00 0.00 96 1020.5
20260508143132 13 69 4.8 4.8 0.00 0.00 0.00 96 1020.4
20260508142628 12 97 1.6 6.4 0.00 0.00 0.00 97 1020.5
20260508142125 12 66 6.4 9.7 0.00 0.00 0.00 98 1020.1
20260508141622 12 159 0.0 0.0 0.00 0.00 0.00 98 1020.4
20260508141119 12 159 0.0 0.0 0.00 0.00 0.00 98 1020.4
20260508140616 12 168 0.0 0.0 0.00 0.00 0.00 98 1020.4
20260508140113 12 153 0.0 0.0 0.00 0.00 0.00 98 1020.2
20260508135608 12 158 0.0 0.0 0.00 0.00 0.00 98 1020.1
20260508135104 12 180 1.6 1.6 0.00 0.00 0.00 98 1020.2
20260508134601 12 160 0.0 0.0 0.00 0.00 0.00 98 1020.0
20260508134053 12 169 0.0 0.0 0.00 0.00 0.00 98 1020.1
20260508133550 12 155 0.0 3.2 0.00 0.00 0.00 98 1020.1
20260508133047 12 169 0.0 0.0 0.00 0.00 0.00 98 1020.0
20260508132545 12 170 0.0 0.0 0.00 0.00 0.00 98 1019.9
20260508132041 12 141 0.0 0.0 0.00 0.00 0.00 98 1020.0
20260508131537 11 135 0.0 0.0 0.00 0.00 0.00 98 1019.9
20260508131034 11 127 0.0 0.0 0.00 0.00 0.00 98 1020.1
20260508130531 11 78 0.0 1.6 0.00 0.00 0.00 98 1019.9
20260508130027 11 153 0.0 0.0 0.00 0.00 0.00 98 1020.0
20260508125523 11 143 0.0 0.0 0.00 0.00 0.00 98 1019.8
20260508125021 11 144 0.0 0.0 0.00 0.00 0.00 97 1019.7
20260508124519 11 144 0.0 0.0 0.00 0.00 0.00 97 1019.7
20260508124015 11 144 0.0 0.0 0.00 0.00 0.00 97 1019.7
20260508123514 11 144 0.0 0.0 0.00 0.00 0.00 97 1019.6
20260508123010 11 143 0.0 0.0 0.00 0.00 0.00 97 1019.4
20260508122507 11 143 0.0 0.0 0.00 0.00 0.00 97 1019.6
20260508122004 11 143 0.0 0.0 0.00 0.00 0.00 97 1019.3
20260508121502 12 143 0.0 0.0 0.00 0.00 0.00 97 1019.6
20260508121000 11 158 0.0 0.0 0.00 0.00 0.00 97 1019.4
20260508120457 11 158 0.0 0.0 0.00 0.00 0.00 96 1019.3
20260508115955 12 158 0.0 0.0 0.00 0.00 0.00 96 1019.1
20260508115453 12 158 0.0 0.0 0.00 0.00 0.00 96 1019.2
20260508114949 11 158 0.0 0.0 0.00 0.00 0.00 96 1019.2
20260508114446 12 158 0.0 0.0 0.00 0.00 0.00 96 1019.1
20260508113942 12 158 0.0 0.0 0.00 0.00 0.00 96 1019.1
20260508113440 12 158 0.0 0.0 0.00 0.00 0.00 96 1019.3
20260508112937 12 158 0.0 0.0 0.00 0.00 0.00 95 1019.2
20260508112434 12 158 0.0 0.0 0.00 0.00 0.00 95 1019.2
20260508111930 12 158 0.0 0.0 0.00 0.00 0.00 95 1019.1
20260508111428 12 158 0.0 0.0 0.00 0.00 0.00 95 1019.0
20260508110925 12 158 0.0 0.0 0.00 0.00 0.00 95 1019.1
20260508110423 12 156 0.0 0.0 0.00 0.00 0.00 95 1019.2
20260508105922 12 157 0.0 1.6 0.00 0.00 0.00 94 1019.1
20260508105419 12 163 0.0 3.2 0.00 0.00 0.00 95 1019.1
20260508104916 12 132 0.0 0.0 0.00 0.00 0.00 94 1019.2
20260508104413 12 160 0.0 0.0 0.00 0.00 0.00 94 1019.0
20260508103910 12 127 0.0 0.0 0.00 0.00 0.00 94 1019.1
20260508103407 12 143 0.0 0.0 0.00 0.00 0.00 94 1018.8
20260508102904 12 158 0.0 0.0 0.00 0.00 0.00 93 1019.0
20260508102403 13 161 0.0 0.0 0.00 0.00 0.00 93 1019.1
20260508101859 13 144 0.0 1.6 0.00 0.00 0.00 93 1018.9
20260508101356 13 145 1.6 3.2 0.00 0.00 0.00 93 1019.1
20260508100854 13 142 0.0 3.2 0.00 0.00 0.00 92 1019.0
20260508100353 13 83 1.6 3.2 0.00 0.00 0.00 92 1019.0
20260508095848 13 131 1.6 3.2 0.00 0.00 0.00 92 1019.0
20260508095346 13 171 1.6 3.2 0.00 0.00 0.00 92 1019.0
20260508094842 13 130 0.0 1.6 0.00 0.00 0.00 92 1019.0
20260508094339 13 143 0.0 3.2 0.00 0.00 0.00 92 1019.1
20260508093836 13 144 0.0 1.6 0.00 0.00 0.00 92 1019.0
20260508093334 13 178 1.6 3.2 0.00 0.00 0.00 92 1019.1
20260508092831 13 132 0.0 1.6 0.00 0.00 0.00 91 1018.9
20260508092329 13 119 1.6 1.6 0.00 0.00 0.00 91 1018.9
20260508091827 13 159 1.6 3.2 0.00 0.00 0.00 91 1018.9
20260508091323 13 155 0.0 3.2 0.00 0.00 0.00 91 1019.2
20260508090821 14 178 3.2 3.2 0.00 0.00 0.00 90 1019.0
20260508090320 14 148 0.0 3.2 0.00 0.00 0.00 90 1019.2
20260508085814 14 121 4.8 4.8 0.00 0.00 0.00 89 1019.0
20260508085312 15 143 4.8 6.4 0.00 0.00 0.00 89 1019.1
20260508084808 15 149 1.6 4.8 0.00 0.00 0.00 89 1019.1
20260508084305 15 128 3.2 6.4 0.00 0.00 0.00 89 1019.4
20260508083803 15 153 0.0 4.8 0.00 0.00 0.00 88 1019.3
20260508083300 15 127 3.2 9.7 0.00 0.00 0.00 88 1019.4
20260508082800 15 147 4.8 6.4 0.00 0.00 0.00 88 1019.3
20260508082258 15 109 0.0 3.2 0.00 0.00 0.00 87 1019.6
20260508081755 15 112 1.6 4.8 0.00 0.00 0.00 88 1019.4
20260508081251 15 172 0.0 0.0 0.00 0.00 0.00 88 1019.4
20260508080748 15 137 0.0 0.0 0.00 0.00 0.00 88 1019.6
20260508080247 14 153 0.0 0.0 0.00 0.00 0.00 89 1019.4
20260508075742 14 145 0.0 0.0 0.00 0.00 0.00 89 1019.3
20260508075239 14 163 0.0 0.0 0.00 0.00 0.00 89 1019.6
20260508074737 13 182 0.0 0.0 0.00 0.00 0.00 90 1019.6
20260508074235 13 188 0.0 0.0 0.00 0.00 0.00 91 1019.7
20260508073731 13 186 0.0 0.0 0.00 0.00 0.00 91 1019.7
20260508073230 13 187 0.0 0.0 0.00 0.00 0.00 91 1019.7
20260508072725 13 187 0.0 0.0 0.00 0.00 0.00 91 1019.4
20260508072222 13 188 0.0 0.0 0.00 0.00 0.00 90 1019.7
20260508071719 13 188 0.0 0.0 0.00 0.00 0.00 90 1019.7
20260508071218 13 188 0.0 0.0 0.00 0.00 0.00 89 1019.3
20260508070715 13 188 0.0 0.0 0.00 0.00 0.00 89 1019.4
20260508070214 13 188 0.0 0.0 0.00 0.00 0.00 88 1019.2
20260508065710 14 189 0.0 0.0 0.00 0.00 0.00 87 1019.4
20260508065209 14 189 0.0 0.0 0.00 0.00 0.00 87 1019.4
20260508064706 15 188 0.0 0.0 0.00 0.00 0.00 86 1019.3
20260508064204 15 272 1.6 9.7 0.00 0.00 0.00 86 1019.1
20260508063701 14 190 3.2 4.8 0.00 0.00 0.00 87 1019.0
20260508063159 13 196 0.0 1.6 0.00 0.00 0.00 88 1019.1
20260508062656 13 180 0.0 0.0 0.00 0.00 0.00 88 1019.1
20260508062153 13 190 0.0 0.0 0.00 0.00 0.00 88 1019.2
20260508061649 13 178 0.0 0.0 0.00 0.00 0.00 88 1018.9
20260508061147 13 179 0.0 0.0 0.00 0.00 0.00 88 1018.9
20260508060644 13 180 0.0 0.0 0.00 0.00 0.00 89 1019.0
20260508060141 13 180 0.0 0.0 0.00 0.00 0.00 88 1019.1
20260508055637 14 181 0.0 0.0 0.00 0.00 0.00 87 1019.0
20260508055134 14 177 0.0 0.0 0.00 0.00 0.00 87 1019.1
20260508054630 15 164 0.0 0.0 0.00 0.00 0.00 86 1018.9
20260508054128 15 164 0.0 0.0 0.00 0.00 0.00 86 1019.2
20260508053624 15 184 0.0 0.0 0.00 0.00 0.00 86 1018.8
20260508053122 15 160 0.0 0.0 0.00 0.00 0.00 86 1019.1
20260508052619 14 174 0.0 0.0 0.00 0.00 0.00 87 1018.9
20260508052116 14 153 0.0 0.0 0.00 0.00 0.00 87 1019.1
20260508051612 14 147 0.0 0.0 0.00 0.00 0.00 87 1018.9
20260508051108 14 153 0.0 0.0 0.00 0.00 0.00 88 1018.8
20260508050604 14 153 0.0 0.0 0.00 0.00 0.00 87 1018.9
20260508045558 14 149 0.0 0.0 0.00 0.00 0.00 87 1018.8
20260508045056 14 149 0.0 0.0 0.00 0.00 0.00 87 1018.9
20260508044553 14 149 0.0 0.0 0.00 0.00 0.00 86 1019.0
20260508044049 15 153 0.0 0.0 0.00 0.00 0.00 85 1019.0
20260508043545 15 152 0.0 0.0 0.00 0.00 0.00 85 1018.8
20260508043043 15 146 0.0 0.0 0.00 0.00 0.00 84 1019.0
20260508042539 15 158 0.0 0.0 0.00 0.00 0.00 84 1018.7
20260508042037 15 173 0.0 0.0 0.00 0.00 0.00 84 1018.6
20260508041533 15 221 0.0 0.0 0.00 0.00 0.00 84 1018.7